Weather in Chigirinka

Belarus     53°25′23″N   29°51′00″E
temp.,
°C
wind,
m/s
gust,
m/s
humid.,
%
clouds,
%
prec.,
mm/h
press.,
hPa
HPBL,
m
10 april, sat
sat1000:00+3s41374100 0.0 1023347
03:00+3s41371100 0.0 1022372
06:00+2s4137194 0.0 1022377
09:00+5s5146258 0.0 1022640
12:00+10ssw711445 0.0 10211491
15:00+12ssw6939100 0.0 10211819
18:00+12ssw48465 0.0 10201215
21:00+7s310695 0.0 1022195
11 april, sun
sun1100:00+6s412705 0.0 1023274
03:00+5s412745 0.0 1024269
06:00+4s310795 0.0 1025209
09:00+8ssw37635 0.0 1026275
12:00+14s46485 0.0 1026867
15:00+15s46425 0.0 10261461
18:00+15s35495 0.0 1026683
21:00+9se39691 0.0 1028166
12 april, mon
mon1200:00+7sse26710 0.0 1028105
03:00+6sse24760 0.0 102976
06:00+4se23800 0.0 102849
09:00+9ese36620 0.0 1027306
12:00+13se46420 0.0 10251130
15:00+15se343417 0.0 10231472
18:00+13se3644100 0.0 1021478
21:00+8se3874100 0.0 1022162
13 april, tue
tue1300:00+7se2596100 0.0 1022146
03:00+6sse229626 0.0 102121
06:00+5ese11944 0.0 102010
09:00+10ese12760 0.0 1020241
12:00+16se11510 0.0 1018890
15:00+18ssw11400 0.0 10171597
18:00+17ssw11435 0.0 10161563
21:00+12se11665 0.0 101715
14 april, wed
wed1400:00+10se22855 0.0 101719
03:00+9se129542 0.0 101715
06:00+9e239669 0.1 101676
09:00+12ene348484 0.1 1016372
12:00+11ese3595100 0.8 1016348
15:00+12e348699 1.3 1016415
18:00+13ese247694 0.6 1015319
21:00+9ese128484 0.8 101713